Theta_e
313 304 301 300 302 305 306 308 310 311 312 313 312 312 311 311 313 317 319 324 328 324 322 326 325 327 327 331 334 338 340 339 338 338 338 339 341 342 338 336 337 337 335 338 339 339 339 340 339 342 341 342 342 347 347 347 347 346 348 352 353 355 358 359 358 357 355 353 355 355 351 352 354 359 358 355 357 359 361 363 366 371 366 371 370 373
311 303 302 305 306 306 308 309 310 311 311 310 309 309 309 312 311 317 318 326 328 325 322 324 323 322 325 330 335 337 338 336 337 337 337 336 338 339 338 338 338 338 339 338 339 338 340 338 340 341 340 344 339 345 345 347 348 348 348 351 351 355 357 359 358 359 357 358 355 353 351 352 353 358 359 357 359 359 361 369 369 370 367 370 371 373
304 302 306 308 309 309 309 309 309 309 309 310 308 310 309 310 315 318 321 324 326 323 320 323 320 321 326 330 334 335 334 337 337 337 337 339 337 338 339 340 339 337 337 337 338 338 340 339 341 341 340 341 340 343 343 347 348 349 352 355 356 355 356 358 358 361 360 360 362 356 354 352 353 357 357 357 360 360 361 363 366 371 369 370 369 371
300 304 308 310 310 309 308 308 308 308 309 308 309 308 307 312 312 309 318 320 324 320 320 323 320 321 326 329 331 335 336 337 341 340 343 343 342 338 339 339 340 337 338 336 338 336 339 338 342 341 341 340 341 343 343 345 348 347 356 357 358 357 356 359 361 361 360 361 365 366 366 361 360 359 363 363 362 363 360 359 362 369 370 368 365 366
304 307 311 310 310 309 306 307 306 305 304 309 311 311 311 312 313 313 313 316 320 321 325 322 318 317 322 322 327 331 336 337 341 342 341 343 342 340 342 342 340 338 338 337 337 337 338 337 339 341 342 340 340 342 343 345 346 347 351 356 359 359 358 359 362 363 365 364 364 364 364 366 365 364 362 360 359 359 361 359 362 363 368 369 365 365
307 311 312 309 308 308 307 305 307 307 304 307 311 313 313 314 313 314 315 313 312 312 317 321 311 310 320 321 321 324 332 333 336 338 337 341 342 340 340 342 343 342 342 340 338 338 338 339 340 342 342 340 341 343 343 346 346 348 351 356 360 360 360 357 361 365 365 364 362 363 360 358 361 357 357 356 355 353 356 354 358 363 362 363 364 366
308 313 311 309 307 307 306 305 308 309 305 305 308 316 315 314 314 313 313 312 307 305 313 318 309 307 317 319 322 323 327 332 336 335 337 339 341 340 339 341 341 340 341 341 340 340 339 340 339 342 342 341 341 342 345 346 347 350 353 357 358 359 360 359 361 365 365 363 364 362 358 356 357 355 358 363 357 357 359 361 359 363 362 366 362 361
310 310 310 310 308 306 305 303 307 309 305 305 315 315 315 314 312 312 312 312 310 315 316 317 313 309 311 316 322 322 323 330 332 333 333 339 339 340 342 342 343 341 340 341 342 341 340 342 341 341 342 341 342 343 344 345 346 353 357 358 359 360 360 361 361 364 365 363 364 364 361 360 358 353 357 361 361 359 361 361 359 360 361 364 366 364
309 307 309 307 307 305 304 306 309 313 308 309 315 314 313 313 312 312 312 311 311 309 306 311 315 307 307 316 321 322 320 324 327 329 333 337 339 340 341 343 343 345 343 342 339 340 340 342 342 343 342 342 343 343 344 344 347 353 357 359 361 361 361 363 362 363 364 365 364 362 359 361 361 358 358 360 361 363 362 361 362 366 361 367 371 367
310 310 310 310 307 304 308 310 312 314 309 312 314 314 313 313 313 314 311 310 310 308 303 308 311 305 311 315 319 320 323 322 326 329 331 333 337 339 340 340 338 340 345 343 342 343 343 342 344 344 344 342 342 343 346 345 346 349 356 359 360 361 360 361 363 364 365 365 365 362 361 360 360 361 362 360 364 365 366 362 363 368 370 360 367 365
311 314 315 312 308 310 311 312 313 312 314 316 313 312 312 311 310 312 312 311 308 302 305 309 311 309 305 312 315 316 320 325 328 332 334 335 336 339 341 341 341 344 343 345 344 344 345 345 347 346 344 343 342 344 344 344 346 348 352 357 358 361 360 362 362 364 362 364 364 361 362 360 359 361 360 362 361 364 364 362 360 365 370 363 362 364
311 311 310 313 315 314 313 310 313 314 315 313 310 309 309 308 310 308 308 310 301 299 306 310 310 311 301 309 319 323 326 327 327 328 330 332 334 337 339 340 343 345 345 346 345 345 345 348 346 347 347 343 343 343 343 343 346 349 353 356 358 361 362 362 362 362 360 361 362 362 362 362 361 361 356 359 358 361 360 359 361 365 366 368 362 363
306 307 310 311 318 313 311 308 309 311 313 311 309 309 302 301 302 298 302 298 299 299 307 311 311 307 308 317 320 323 326 328 329 330 330 332 335 336 338 339 341 344 344 347 346 348 346 345 344 346 347 350 349 347 345 343 344 348 354 357 358 360 362 362 362 361 361 361 360 361 360 363 363 362 362 361 361 361 362 362 361 365 364 370 368 363
303 310 309 310 312 314 312 304 304 304 309 309 307 306 301 297 297 294 298 301 302 304 309 310 312 305 314 320 326 325 327 329 330 331 332 334 335 339 340 339 340 342 344 345 345 346 347 345 345 348 348 348 349 347 346 345 347 350 351 358 356 360 362 363 364 362 362 360 360 362 361 362 364 362 362 361 358 357 362 365 363 358 358 365 363 360
297 298 304 308 304 313 311 310 309 307 308 309 312 308 304 303 298 294 297 295 297 301 305 311 306 308 309 313 326 327 328 329 330 331 333 334 335 337 338 339 339 341 343 346 345 346 347 347 348 347 348 349 348 350 347 346 350 352 354 359 359 360 361 363 364 364 363 359 359 360 361 361 362 361 360 360 361 361 360 357 358 363 359 359 362 367
301 300 307 311 311 313 310 313 313 311 309 311 312 312 306 303 308 299 302 301 301 301 302 305 306 313 315 324 328 329 328 329 329 330 331 335 336 337 338 338 339 342 345 347 346 346 346 349 351 350 348 349 350 352 349 349 355 351 355 360 360 360 360 361 364 364 363 361 359 361 360 361 362 363 360 364 364 364 361 361 362 363 368 362 365 365
301 299 308 310 312 311 311 313 313 314 301 308 308 304 306 312 309 304 305 306 306 303 300 308 311 316 321 322 324 326 325 326 328 330 331 333 334 335 335 337 340 344 346 348 348 348 348 349 349 351 352 350 349 349 350 356 357 358 357 358 359 361 360 360 364 363 363 364 361 360 360 359 360 358 357 354 356 352 356 361 360 359 358 361 366 362
298 299 307 308 306 310 313 313 313 315 314 306 303 306 313 314 311 306 298 302 300 297 300 308 307 308 311 306 325 322 321 324 325 328 330 331 334 334 335 337 339 340 342 345 348 348 349 349 348 348 348 349 349 349 349 358 359 359 358 359 359 361 360 359 359 361 362 363 361 361 360 359 357 354 354 356 355 353 355 359 360 358 359 358 356 358
304 295 302 307 307 309 312 312 310 313 315 307 307 314 305 300 299 305 302 295 295 295 298 303 308 309 313 310 317 319 319 321 324 326 327 328 329 330 334 336 338 339 340 342 343 346 348 348 350 352 352 350 352 352 352 356 353 354 357 359 357 358 360 359 359 360 362 362 359 359 358 357 357 357 356 356 358 356 354 352 353 353 356 355 361 366
305 296 298 307 306 308 309 307 300 304 311 312 312 308 311 306 303 301 303 304 303 297 296 297 306 305 313 316 321 319 322 322 323 324 325 326 328 330 331 334 337 336 338 339 341 345 347 349 349 348 349 350 353 354 354 355 353 354 357 358 359 359 361 361 359 361 360 359 360 358 361 361 361 361 358 358 358 354 352 353 353 353 352 354 356 356
302 305 295 302 307 307 300 303 301 304 302 304 304 303 306 306 309 307 307 303 301 299 298 298 300 306 314 321 320 320 322 323 324 323 325 326 327 329 331 332 335 339 339 340 342 344 345 349 349 351 354 356 355 354 353 349 350 352 354 354 354 355 356 358 358 358 359 361 360 361 360 359 359 357 356 354 355 355 353 353 354 352 351 356 355 355
302 302 297 300 300 300 302 307 306 305 306 305 304 303 305 303 301 298 298 306 305 301 296 298 299 309 316 323 321 320 322 323 324 324 324 326 328 328 329 331 333 335 337 340 342 343 345 347 350 352 353 352 353 353 352 352 354 352 348 350 352 352 354 354 353 355 358 357 358 356 359 359 358 357 357 354 352 353 352 352 353 355 354 351 355 354
304 302 299 297 299 301 304 307 309 309 309 307 306 304 308 306 306 302 294 300 304 304 305 307 304 306 319 321 322 321 322 323 324 324 324 325 328 328 329 330 332 334 335 337 339 341 343 346 348 350 351 353 354 354 358 353 350 348 349 350 353 352 354 354 355 356 359 353 354 355 358 359 358 358 356 353 351 349 349 351 351 354 352 348 349 353
312 300 298 299 302 304 307 308 309 309 308 306 306 308 307 304 305 304 303 305 302 304 301 303 304 307 318 323 322 322 323 323 324 325 324 324 325 328 328 329 330 333 334 336 338 339 340 341 344 346 348 349 351 353 356 355 353 353 352 353 350 353 354 355 359 359 359 357 352 349 350 355 358 357 355 352 350 349 348 349 350 352 351 349 348 348
299 303 299 296 295 298 300 304 304 307 307 304 304 306 308 308 305 305 305 307 301 302 302 303 299 305 316 322 322 321 322 321 322 323 324 323 324 326 327 328 329 329 331 333 335 336 337 337 338 341 344 346 347 349 351 351 355 353 355 354 353 355 356 357 357 357 355 355 358 358 353 349 352 354 355 352 349 349 349 349 350 351 350 348 345 347
301 302 300 293 291 289 289 291 293 297 300 304 306 306 307 306 305 304 300 306 296 305 307 303 303 311 316 320 319 321 320 320 321 322 323 325 325 325 326 327 328 327 327 329 332 333 333 334 335 338 341 342 343 345 346 348 351 351 351 353 355 353 354 356 359 358 355 356 357 357 356 353 351 351 352 353 351 348 348 348 348 350 350 349 347 348
301 304 303 302 298 295 297 300 303 305 303 300 302 304 304 305 306 305 303 301 299 304 304 309 309 309 312 315 316 317 318 318 319 320 321 322 324 325 326 326 327 327 327 327 328 330 332 332 333 334 337 339 340 341 343 346 348 349 352 352 356 356 354 358 359 357 356 356 355 352 353 352 348 348 350 351 351 349 348 346 345 346 349 350 349 346
303 300 302 304 303 303 301 301 303 305 302 303 302 303 304 304 304 303 301 300 307 302 301 310 313 310 310 315 316 317 317 319 319 320 320 321 323 324 324 325 327 325 326 326 326 327 329 330 332 333 333 336 338 339 342 342 343 349 351 350 352 355 355 358 359 357 355 356 356 353 352 353 355 355 353 351 354 352 348 347 345 345 347 350 349 346
301 298 301 302 302 304 303 302 303 302 302 302 303 303 302 303 303 301 303 305 305 302 302 311 313 311 313 315 316 317 318 318 318 319 321 322 323 324 325 324 324 323 324 324 325 326 327 328 330 331 332 333 336 338 339 341 341 344 345 347 350 354 355 359 357 354 355 356 357 356 355 356 356 356 355 353 357 356 353 349 349 348 348 350 347 345
300 297 301 301 299 302 301 302 303 301 302 302 303 303 303 302 302 303 303 305 305 308 313 314 315 313 316 316 317 319 320 319 320 321 322 321 320 322 323 323 322 323 323 323 324 324 326 327 328 329 331 332 332 334 336 339 341 342 344 344 346 350 352 356 356 355 356 358 356 355 354 356 355 354 356 353 351 357 359 355 351 347 347 348 348 349
298 298 302 300 297 298 301 302 301 301 300 300 301 302 301 302 302 304 304 304 306 310 311 311 313 311 316 320 319 320 321 320 320 319 319 320 321 320 321 321 322 322 323 324 325 324 325 326 327 327 329 330 331 332 334 335 337 340 341 343 345 348 351 353 354 353 353 354 355 358 358 355 355 355 354 356 356 354 353 356 353 353 359 358 352 351
299 297 301 298 294 295 300 299 300 300 300 299 300 301 300 300 299 301 302 304 304 305 308 311 308 308 314 319 319 320 319 319 318 318 319 320 319 320 319 319 320 321 321 322 324 325 325 325 326 327 326 327 329 331 332 335 336 337 339 342 344 347 348 349 350 352 354 355 356 356 355 357 357 357 357 355 355 357 353 354 351 354 360 361 354 367
300 298 297 296 292 292 299 299 298 298 297 295 297 300 301 302 302 303 304 306 308 308 305 305 308 313 316 318 316 318 318 318 318 318 318 319 320 319 318 318 319 320 320 321 321 323 324 324 325 327 326 328 328 330 332 334 335 336 337 342 342 345 346 346 346 347 350 353 355 355 356 356 355 356 357 357 358 356 355 356 355 353 349 351 353 355
301 300 297 299 292 293 297 297 298 294 288 290 301 304 304 301 302 301 302 304 308 312 308 314 314 316 316 316 315 315 316 316 318 320 321 320 319 319 319 318 318 320 320 321 321 321 322 323 323 326 327 328 331 331 334 335 335 336 337 339 341 343 344 344 344 345 345 348 351 353 354 356 356 355 356 358 356 354 353 352 354 353 354 352 352 352
299 298 296 300 295 292 297 297 292 287 289 301 304 306 306 305 304 304 307 307 309 312 313 311 313 314 316 317 317 317 317 317 318 317 319 321 321 320 318 317 317 318 319 320 320 321 322 323 323 324 325 325 328 331 330 332 334 337 338 339 340 341 342 342 342 342 342 343 345 347 349 352 354 355 355 357 357 354 353 353 353 353 355 354 354 351
302 297 297 297 297 296 294 294 286 288 300 303 303 304 306 306 304 305 305 308 309 311 312 312 314 315 316 316 316 317 318 317 317 318 318 319 320 320 317 316 317 317 316 318 318 319 320 321 323 322 325 325 323 326 328 330 333 334 335 337 336 337 338 339 340 341 341 340 341 343 345 347 349 351 353 355 356 355 354 354 354 354 358 357 356 355
303 303 301 296 299 290 293 293 291 299 299 300 299 300 301 301 302 300 297 304 309 311 313 312 313 314 314 315 315 316 317 316 313 314 317 318 318 319 318 318 317 317 317 319 318 317 320 321 322 322 325 328 322 324 326 330 333 333 335 335 337 340 338 337 337 338 340 341 341 341 343 346 348 349 350 352 354 354 355 355 355 357 359 357 357 355
305 300 303 298 296 296 292 291 291 291 288 296 304 308 309 308 307 308 305 303 309 310 314 313 312 313 312 312 312 314 314 311 309 310 315 316 317 317 317 318 317 317 317 317 319 318 319 321 321 322 320 321 320 323 328 329 332 332 332 334 336 335 335 335 335 337 338 339 340 342 342 344 346 349 350 350 349 352 355 357 357 357 360 359 357 355
304 304 303 300 297 295 293 290 289 287 291 302 304 305 306 307 305 304 301 297 308 310 311 313 311 312 311 311 311 313 310 306 308 310 314 315 315 316 315 315 316 316 317 317 317 316 317 319 320 320 320 321 318 321 324 326 331 326 326 327 330 331 333 334 335 336 337 338 340 342 343 344 346 347 347 348 349 349 351 353 353 355 357 358 357 356
301 298 298 296 296 297 294 291 289 296 296 302 304 305 306 306 303 303 289 291 309 310 311 312 311 310 310 311 312 311 307 305 307 312 314 314 315 315 315 315 315 316 316 316 316 317 319 322 320 318 317 317 319 320 324 322 324 326 325 324 328 327 327 331 333 337 338 339 340 341 344 345 345 345 345 346 348 350 352 353 353 352 352 355 358 355
296 297 297 293 293 294 295 293 294 299 306 307 306 306 305 307 303 292 288 300 310 311 311 311 310 310 311 310 310 308 311 313 314 314 316 315 314 314 315 315 315 316 315 315 315 320 317 318 317 316 317 320 322 319 320 321 324 325 326 325 325 327 327 331 335 338 338 340 339 340 341 342 343 345 346 348 349 351 351 353 352 352 352 353 355 356
297 297 297 297 294 292 297 292 292 300 306 308 307 306 304 302 291 290 306 313 313 311 312 311 310 310 311 309 309 310 312 313 313 314 313 313 313 314 314 314 315 315 316 317 319 318 316 316 317 317 317 317 318 319 320 322 324 325 326 326 325 326 328 329 334 335 336 338 339 341 341 337 341 343 344 347 347 341 343 351 353 353 353 353 353 352
297 294 292 293 296 296 295 292 290 288 302 309 308 306 305 297 302 309 312 312 312 310 311 310 310 310 311 310 310 310 311 311 312 312 312 313 313 313 313 314 314 314 314 315 316 316 315 315 315 315 315 315 317 320 321 321 323 323 325 324 327 328 329 329 330 333 335 337 337 339 340 342 341 337 338 341 343 342 344 348 349 351 351 350 350 349
302 295 294 296 299 291 291 289 289 301 306 310 307 300 306 309 311 313 311 308 310 311 311 310 310 310 311 310 310 310 311 311 311 311 311 312 313 313 314 315 315 315 315 315 315 316 317 315 315 314 315 316 319 320 321 322 322 323 323 325 328 329 329 329 330 334 334 335 334 334 338 340 341 342 344 341 343 348 347 347 348 346 348 351 349 347
304 299 303 296 302 297 295 299 303 308 310 309 309 311 312 313 313 312 313 311 310 309 313 309 311 310 311 311 310 310 309 310 310 310 311 311 312 312 313 314 314 314 314 315 315 318 317 315 314 315 316 317 319 320 322 322 322 322 322 326 329 329 329 330 329 329 330 332 331 332 333 336 338 341 344 346 349 348 349 348 347 345 343 345 348 348
306 306 310 306 301 306 307 307 311 309 310 308 308 310 310 310 311 311 311 309 311 311 311 309 310 311 312 312 309 309 309 310 310 311 311 312 312 312 314 314 314 315 315 315 315 315 315 315 315 315 316 317 319 319 322 321 321 321 323 324 327 327 327 328 328 328 329 328 329 330 330 329 328 331 338 343 347 345 347 344 350 348 345 341 344 349
306 307 304 299 303 298 293 306 306 307 309 309 308 310 311 311 311 311 311 308 309 310 310 311 311 311 311 312 311 311 311 311 310 310 311 312 312 312 312 312 313 313 313 313 314 315 314 314 314 315 316 316 318 319 319 320 320 322 324 326 324 324 328 326 325 327 328 329 328 329 329 328 326 327 329 333 337 344 345 344 348 351 351 347 347 348
300 310 303 303 302 298 298 304 306 308 309 310 309 308 308 310 311 312 312 312 313 312 311 312 311 308 309 309 311 310 309 310 308 309 310 311 311 311 311 312 312 312 313 314 314 315 314 314 314 314 315 316 318 319 320 320 320 320 322 322 324 324 325 326 326 325 325 325 328 328 329 328 331 333 331 335 338 337 340 348 347 344 343 344 345 343
305 306 298 304 301 302 304 305 306 309 308 309 309 310 311 310 311 311 311 312 311 310 310 310 311 310 310 309 310 310 309 309 310 310 309 309 310 311 311 311 312 312 312 312 313 313 313 313 313 314 315 316 317 318 318 319 320 321 322 323 324 325 324 325 326 326 326 326 327 329 332 331 332 330 330 334 337 335 342 339 337 345 346 345 349 346
305 300 304 303 299 299 300 303 307 299 299 305 308 310 310 311 311 310 311 311 310 310 311 309 310 310 309 310 310 309 308 309 309 310 309 310 310 310 311 311 311 311 311 312 312 312 313 313 313 313 314 315 316 317 318 318 320 321 321 322 323 324 323 323 324 324 325 326 326 327 328 328 326 329 331 329 327 328 333 338 326 333 338 338 340 331
304 305 303 301 300 300 305 307 309 308 307 308 309 311 312 313 312 310 309 310 310 310 311 310 309 309 309 310 310 308 307 308 309 310 309 308 310 313 312 311 310 310 310 311 310 311 311 312 313 314 314 315 317 316 317 318 318 320 320 321 322 321 322 322 322 322 323 325 325 326 327 326 326 328 331 331 330 331 331 330 336 316 313 322 329 323
Wind_Speed
8 10 11 11 11 11 14 15 14 16 18 14 13 12 11 11 7 7 9 10 13 11 8 9 6 9 11 12 11 11 9 7 9 8 7 5 6 6 3 9 16 15 15 14 16 16 15 15 14 12 11 10 12 10 13 11 11 11 8 10 9 7 9 7 7 6 6 6 5 5 7 7 6 4 5 6 6 6 6 7 6 5 6 5 5 5
11 11 12 13 14 14 12 14 15 17 18 18 16 11 11 11 7 8 8 8 9 10 5 7 6 8 11 14 14 12 12 13 12 11 12 13 9 5 5 10 12 15 13 17 14 16 15 14 16 14 11 12 13 10 13 12 11 10 11 12 10 8 8 7 7 6 6 5 4 6 6 7 6 5 4 5 4 5 7 6 5 5 6 6 5 4
11 12 11 14 13 14 15 13 15 17 17 15 13 11 11 9 5 10 12 7 8 8 6 11 10 9 11 12 15 13 13 10 13 13 13 11 6 4 6 11 10 14 15 16 16 17 15 17 17 14 12 12 13 14 14 12 11 11 9 8 8 8 8 7 8 6 5 5 4 5 5 6 6 6 5 5 7 7 8 7 5 4 5 5 5 5
10 11 14 13 12 14 15 14 14 16 15 12 10 9 10 11 11 7 12 12 9 5 8 11 10 8 12 12 14 14 12 11 10 9 7 7 7 10 10 12 8 15 12 17 16 18 16 17 15 14 13 12 12 12 13 13 12 11 8 9 8 8 8 7 7 6 6 5 4 4 3 3 4 4 4 5 5 5 7 8 7 5 5 5 6 7
10 9 13 15 14 13 15 14 13 11 11 12 12 11 9 8 4 6 5 9 11 8 14 13 5 8 12 13 12 13 11 10 9 7 4 4 8 6 8 12 8 11 15 15 17 17 16 17 16 15 13 14 13 13 14 13 13 10 12 10 8 8 8 7 8 6 6 5 4 5 4 3 4 3 4 5 4 5 5 6 6 7 6 5 5 6
12 13 11 16 16 14 14 12 11 9 11 11 14 14 13 10 8 9 5 5 7 8 11 17 6 6 11 13 13 13 12 14 12 11 7 8 6 8 8 10 14 12 11 13 16 17 16 17 15 15 14 15 14 13 14 13 14 12 11 11 8 7 7 8 8 6 6 5 6 6 4 4 4 5 5 5 6 6 7 8 7 7 8 7 5 5
11 10 14 15 16 15 13 13 11 13 12 10 10 14 16 12 10 17 11 5 7 8 10 12 7 7 9 11 13 16 17 14 13 12 10 7 8 10 12 13 13 13 9 12 15 16 17 16 16 16 15 16 15 14 14 13 13 13 12 11 9 8 6 7 8 7 7 6 5 7 7 6 5 6 5 5 7 7 5 3 6 5 6 7 7 6
11 13 14 12 14 15 14 13 12 11 11 9 8 15 16 16 12 6 8 9 7 9 8 15 10 6 6 9 14 16 17 16 12 12 14 11 13 13 12 11 8 12 15 10 9 15 17 16 16 16 16 15 15 15 15 14 14 12 12 12 10 8 7 6 9 7 7 7 6 6 6 5 5 7 6 5 5 6 6 6 6 6 5 6 5 5
12 15 14 13 12 13 12 8 10 11 11 9 10 11 14 17 10 12 9 10 12 11 7 10 11 6 10 12 13 10 14 18 16 15 16 14 14 13 13 10 5 8 16 16 16 17 17 16 16 15 15 16 16 15 15 13 13 12 13 12 10 9 8 7 11 7 7 7 7 6 5 4 4 4 5 4 4 4 6 7 5 4 6 4 4 6
10 16 13 12 9 7 6 9 14 10 11 13 15 14 16 14 12 9 7 8 9 7 6 9 11 6 9 10 6 11 13 12 14 15 14 16 14 12 10 7 7 9 8 13 13 13 15 14 15 16 16 16 15 15 15 14 14 13 12 13 11 10 9 8 11 8 8 8 7 7 5 7 5 4 4 4 4 4 5 6 6 4 4 6 5 6
9 12 15 10 11 9 8 11 14 13 11 9 13 11 8 9 12 9 9 6 5 9 9 13 12 10 8 11 10 9 9 11 10 9 9 10 13 14 13 12 13 12 13 7 9 11 13 15 13 15 17 15 14 14 15 14 14 14 14 14 13 11 9 9 11 10 9 8 8 6 6 7 6 5 5 4 4 4 4 5 6 6 4 5 6 5
12 12 10 8 6 9 12 13 12 12 8 14 9 10 5 5 5 7 9 6 8 9 10 12 15 10 7 9 11 9 10 10 12 12 12 10 12 12 12 12 12 10 10 9 9 9 8 10 13 12 12 14 13 15 15 14 14 14 13 14 13 12 11 10 11 11 11 9 8 7 7 7 6 5 6 5 6 5 5 5 6 6 5 4 6 6
12 11 6 8 8 14 12 13 10 11 10 12 11 10 9 7 5 7 6 12 12 9 9 14 15 10 5 10 14 14 12 10 8 8 9 13 12 12 14 14 12 9 11 7 2 5 9 11 13 14 15 11 9 10 13 14 15 14 13 14 14 13 12 11 12 12 12 9 9 8 8 7 6 6 6 5 6 5 5 5 5 5 5 4 4 5
10 15 14 15 11 13 14 13 11 12 11 11 10 9 11 11 10 9 12 9 9 13 13 14 14 5 12 10 9 10 13 12 9 7 8 7 11 10 6 7 11 13 11 8 10 9 10 11 11 11 11 10 10 11 14 14 12 12 13 14 15 13 12 11 12 13 12 10 9 8 8 7 6 7 6 6 6 7 5 5 5 6 6 5 6 5
11 13 13 14 10 9 14 13 10 11 12 11 10 11 10 9 9 11 9 11 12 9 12 12 13 9 11 6 13 14 7 10 8 9 8 7 8 8 8 9 10 10 11 12 9 10 9 10 10 12 12 11 12 9 12 13 11 12 12 13 14 13 13 12 13 12 12 11 10 9 8 8 7 7 6 6 6 6 6 6 6 5 6 6 5 4
14 10 11 15 9 12 12 15 14 12 9 11 12 11 11 12 9 10 9 11 11 11 11 11 1 8 10 11 9 12 14 13 9 11 12 13 9 6 4 5 7 7 7 9 12 14 14 11 11 10 10 11 10 10 10 12 7 12 11 14 14 14 13 13 12 11 12 11 10 10 10 9 8 7 7 6 6 5 6 6 5 5 4 6 5 5
8 11 13 16 17 12 14 16 13 7 10 11 12 13 10 9 12 9 9 10 11 10 11 7 10 12 12 10 9 12 13 13 12 12 12 15 11 6 5 3 4 6 4 3 2 2 8 9 7 8 8 8 10 11 10 6 5 6 10 14 14 13 14 14 12 13 11 10 10 11 11 10 9 10 10 10 10 11 8 6 6 6 6 5 4 7
9 10 11 13 15 6 10 16 14 13 8 5 13 11 9 12 12 8 9 8 11 12 9 12 16 12 12 8 6 10 11 11 13 12 11 13 13 10 5 3 5 6 4 2 2 2 3 6 10 12 13 13 10 10 10 5 3 7 4 12 14 14 14 14 15 15 13 11 11 11 11 11 11 12 12 10 10 9 7 6 6 6 7 7 7 7
9 9 3 6 9 8 11 15 16 17 15 10 6 7 13 11 12 9 8 8 10 13 9 13 18 13 10 11 14 15 14 12 12 11 11 11 10 11 10 7 8 7 5 2 2 2 5 6 5 5 6 10 10 9 3 7 9 3 2 4 12 15 16 16 14 14 11 13 11 11 12 13 11 11 10 9 9 9 8 10 9 8 7 9 6 4
6 3 5 10 9 10 7 5 9 11 11 15 11 6 9 9 11 11 8 7 6 9 12 12 16 9 8 7 12 12 11 9 13 11 12 11 9 10 11 11 10 5 4 4 2 4 7 7 5 5 6 6 6 7 4 4 4 4 5 5 8 13 12 11 14 12 13 14 12 11 11 11 9 9 9 9 9 10 10 10 10 10 10 9 7 7
4 5 7 7 15 11 10 9 12 11 12 12 8 6 8 9 7 11 10 11 9 8 10 9 8 8 9 9 11 12 13 12 10 11 11 11 11 10 10 10 10 9 6 3 4 2 5 6 5 6 3 7 8 4 6 5 4 7 6 6 8 5 8 13 11 12 11 10 11 11 12 13 12 13 11 12 11 11 9 9 9 10 8 7 7 7
7 7 7 5 10 12 8 11 16 16 15 13 9 10 9 12 12 12 10 8 11 8 4 7 10 6 7 7 8 10 11 13 12 11 12 13 14 11 9 11 10 8 9 8 6 7 5 2 4 3 6 7 5 5 5 6 7 8 8 6 3 7 5 10 9 12 7 7 10 12 12 13 12 12 11 13 12 12 11 10 9 8 8 10 8 8
6 5 5 7 9 9 14 16 16 3 6 9 12 12 12 13 11 8 6 10 10 12 5 9 11 7 4 9 7 11 12 13 10 12 11 12 14 13 11 11 10 10 9 7 7 10 11 7 1 2 5 6 7 6 4 5 7 7 7 8 7 7 6 9 8 3 7 7 10 7 9 12 12 12 13 15 13 15 14 12 12 9 10 11 11 9
11 3 6 9 7 6 4 5 8 6 7 7 10 13 13 11 7 8 9 5 8 12 7 5 5 7 5 8 10 11 13 10 9 11 11 11 12 13 12 11 10 9 10 9 8 9 10 10 10 7 4 5 4 4 4 3 2 2 4 6 8 10 10 9 6 4 3 5 8 4 10 11 12 15 15 15 14 16 15 14 13 11 11 12 11 11
5 5 6 3 5 5 8 5 5 6 8 8 8 7 11 4 8 12 8 7 5 6 7 7 5 8 5 2 9 10 12 11 13 10 10 9 11 12 11 10 10 10 10 10 11 11 12 12 13 10 9 7 4 5 4 3 2 2 1 2 0 2 4 1 1 5 5 2 2 4 7 8 16 15 16 16 15 16 17 15 14 12 12 12 12 12
7 4 6 6 8 9 11 9 8 10 10 10 15 14 14 3 6 8 6 2 4 6 5 9 6 5 7 6 10 11 14 13 12 13 12 11 11 11 10 11 10 10 9 11 12 13 14 11 11 11 10 9 9 7 4 6 4 4 2 1 1 1 1 1 2 4 6 6 5 5 7 9 10 17 18 17 16 17 16 16 14 14 13 13 12 9
5 4 3 3 4 6 6 6 11 11 9 13 14 14 2 5 6 6 8 7 4 3 7 8 14 12 9 8 10 10 10 10 10 9 13 15 13 11 11 10 10 10 11 12 12 11 12 12 12 11 11 11 11 11 9 6 5 3 2 2 3 3 5 5 5 3 4 5 8 7 8 9 10 13 18 16 15 14 14 15 15 15 15 13 12 11
3 6 4 4 5 5 4 5 14 7 7 11 16 15 6 4 7 7 6 4 11 4 7 4 11 13 11 8 10 10 10 9 10 11 10 13 10 12 12 11 13 13 13 12 12 12 13 12 12 12 11 12 11 11 9 8 9 8 7 7 5 2 2 1 3 3 2 2 3 4 7 7 7 9 15 14 11 11 13 13 13 12 11 11 12 12
6 5 6 9 9 9 6 7 8 10 9 14 24 16 11 9 8 11 10 10 2 6 5 10 10 10 11 12 12 10 9 9 9 9 10 15 15 12 11 12 12 13 13 13 12 12 12 12 11 12 12 12 11 10 9 8 7 8 7 7 7 6 3 2 2 2 4 5 3 2 2 4 7 10 12 19 11 10 10 11 10 9 9 10 11 12
4 5 8 7 9 13 5 8 10 8 5 13 3 5 6 5 8 11 15 6 4 8 12 9 10 8 6 9 13 11 9 9 10 10 8 10 10 10 10 11 12 12 13 13 12 12 12 12 12 12 12 12 13 12 10 7 6 6 7 6 6 6 6 5 1 1 2 1 1 0 2 1 2 1 8 10 15 14 10 9 9 10 10 9 11 9
4 3 7 7 9 4 8 6 7 9 6 6 2 4 1 7 8 4 5 0 4 12 8 12 11 12 6 4 9 12 10 8 8 10 11 9 10 10 9 10 11 12 12 12 11 12 12 12 12 12 12 12 12 11 10 6 7 6 8 7 6 7 8 7 6 5 3 2 2 2 3 3 2 2 1 5 6 9 14 15 10 6 4 5 7 8
2 3 1 4 6 8 6 6 9 9 7 8 10 9 4 8 9 7 7 1 3 8 10 13 8 7 4 8 10 12 13 11 9 8 8 7 8 9 11 9 11 11 12 12 12 11 12 12 12 12 12 12 12 11 10 6 6 7 7 8 7 8 8 8 9 8 6 5 5 5 2 2 0 1 1 1 1 1 5 9 15 18 11 4 5 3
2 4 4 3 7 8 10 5 6 5 7 9 9 8 7 9 7 8 9 1 9 7 12 11 7 7 8 8 11 10 10 10 9 6 8 8 8 9 9 10 10 11 11 11 12 11 11 12 11 11 12 11 10 10 11 9 7 8 9 9 8 8 9 9 9 8 8 8 7 6 6 3 2 3 2 0 2 3 5 5 4 3 11 15 11 6
2 4 5 3 6 9 3 2 2 4 7 7 4 9 14 10 9 9 6 1 3 9 4 9 10 13 12 11 13 10 9 11 10 10 9 5 6 6 8 9 9 10 11 10 11 11 10 10 10 10 10 10 8 9 9 8 8 8 8 8 7 8 8 9 9 8 9 8 8 7 6 6 6 3 1 3 3 2 3 6 8 10 9 8 5 10
3 3 6 3 6 8 3 6 4 8 7 8 6 10 9 7 3 1 6 3 6 6 7 14 15 12 8 9 12 14 12 10 10 9 7 7 6 6 7 8 9 9 9 11 10 10 9 9 9 9 9 10 9 8 9 9 8 7 8 8 7 8 9 8 9 8 8 9 8 7 7 6 7 6 3 2 4 4 5 4 2 1 3 3 6 7
4 3 4 5 5 6 8 5 6 5 6 5 8 7 8 2 7 3 4 5 2 6 9 9 9 10 8 12 14 11 10 14 12 9 9 6 5 6 7 8 8 9 9 9 10 9 9 9 8 9 7 9 9 8 9 9 8 8 9 8 9 10 10 8 8 8 8 8 9 8 7 7 6 4 4 4 3 5 3 2 4 3 4 3 4 5
4 6 3 6 5 7 5 6 5 5 7 7 4 3 2 2 3 4 5 8 3 6 6 9 7 10 12 9 6 6 7 13 12 9 9 9 7 5 5 7 7 8 8 9 9 10 9 8 8 8 7 8 9 7 8 8 8 8 8 8 8 7 8 8 8 8 7 7 7 8 8 7 6 6 6 5 5 4 3 2 1 1 1 2 3 4
3 5 5 4 3 6 7 7 6 6 8 7 7 7 6 6 6 5 1 3 5 4 11 8 9 7 6 5 7 9 3 3 8 7 7 8 8 9 7 5 6 6 7 7 8 8 8 7 7 7 8 9 9 7 6 7 7 7 7 7 6 7 8 8 9 8 8 7 6 6 7 7 7 7 7 5 5 6 5 3 2 2 2 3 4 6
4 5 4 6 5 5 6 8 4 5 1 5 8 8 7 4 4 4 3 5 5 2 8 9 8 6 5 8 4 7 5 3 5 8 6 6 5 7 7 7 7 7 7 8 9 9 8 6 6 7 8 9 10 7 7 7 7 8 8 8 8 8 8 8 8 8 8 8 7 6 7 7 7 7 7 7 6 5 6 5 4 3 2 4 5 6
5 6 5 6 8 7 7 6 6 2 3 4 7 5 5 5 3 3 6 6 8 6 5 5 12 12 8 3 4 2 2 6 4 4 8 6 4 7 5 5 6 6 7 8 9 8 6 6 7 8 9 9 8 8 8 8 8 8 7 8 7 8 8 8 7 7 6 6 6 6 7 7 7 7 7 6 6 6 6 4 5 5 4 4 3 4
6 6 7 8 8 8 8 8 2 5 6 7 5 6 5 4 2 4 3 7 6 8 6 5 4 8 6 4 4 2 5 3 6 4 5 8 5 6 5 6 6 6 8 8 8 6 6 7 8 8 9 7 7 9 9 8 7 7 7 7 7 8 8 7 6 6 6 6 6 6 5 6 6 6 6 5 6 6 6 4 5 5 4 5 5 5
5 4 6 8 9 9 6 7 2 4 5 5 7 6 3 3 4 2 5 2 1 8 6 4 5 0 9 8 4 3 4 9 7 3 4 6 5 4 4 6 7 7 8 7 7 8 7 7 7 7 8 9 9 9 8 7 7 6 6 6 7 7 7 7 6 6 6 6 6 5 3 3 4 6 5 5 5 6 8 7 5 4 5 4 5 7
3 5 6 7 6 7 6 7 5 5 5 2 8 2 3 3 4 5 4 6 7 6 4 7 7 7 2 4 7 3 5 6 4 6 6 5 5 5 6 6 7 7 8 8 8 9 9 7 7 8 9 8 9 8 8 9 8 6 6 6 7 6 6 6 7 6 6 5 6 6 5 3 3 3 4 4 6 5 6 6 7 7 5 5 4 4
3 7 4 6 5 5 8 7 1 5 7 6 2 1 7 8 3 3 5 4 6 2 2 4 2 5 5 1 3 4 6 4 3 3 3 1 3 5 5 6 7 7 7 9 9 10 10 8 8 9 8 8 7 8 7 8 7 6 7 7 6 6 6 7 6 5 5 5 6 6 6 5 4 2 3 2 4 6 5 5 2 7 8 5 3 3
5 7 3 3 3 4 4 2 5 6 7 5 6 8 8 6 5 3 4 4 5 4 6 4 6 9 5 2 3 1 7 4 4 4 3 3 4 5 6 6 7 8 9 9 9 10 10 10 10 9 9 8 9 8 7 6 7 8 8 7 6 6 7 7 6 5 6 6 7 7 6 5 5 4 5 5 5 6 6 6 5 4 7 9 6 4
2 1 3 4 6 5 5 2 5 5 6 5 3 4 6 5 4 4 3 3 4 3 5 4 7 8 5 6 5 4 8 6 3 5 5 4 5 6 5 5 6 7 8 9 9 11 11 11 11 10 10 10 9 9 7 8 7 8 7 8 7 8 7 7 8 8 7 8 7 7 7 7 8 7 4 2 3 4 4 5 5 5 5 7 8 6
9 5 6 6 4 2 4 9 10 8 7 6 5 7 4 4 2 2 3 3 3 2 1 2 3 2 3 8 1 1 3 2 4 4 5 5 6 5 5 6 6 7 9 9 10 10 10 11 10 10 11 11 10 9 9 9 8 8 7 7 9 9 8 9 8 8 7 7 8 8 7 8 7 7 7 7 5 5 6 6 5 4 5 6 6 5
5 6 7 6 7 7 4 4 2 1 2 2 3 7 8 7 5 7 5 4 3 3 1 2 0 1 2 2 3 1 1 3 6 9 8 5 5 6 6 6 7 7 8 8 9 9 10 10 10 11 12 11 9 9 9 9 9 9 9 9 9 8 9 8 8 9 9 10 9 8 8 8 10 9 7 6 5 4 4 3 4 5 5 4 3 4
5 3 5 1 6 6 8 9 7 6 6 7 5 3 2 5 9 7 4 8 8 5 2 2 1 1 2 2 3 4 3 4 5 6 7 6 6 6 5 6 6 6 7 9 9 9 9 10 10 11 11 11 10 10 9 9 9 9 9 8 8 8 8 8 9 9 10 9 8 7 7 7 6 7 7 5 4 5 4 5 5 4 5 6 4 4
5 7 6 7 6 7 3 5 6 7 6 2 4 5 4 2 4 4 8 8 7 7 7 3 5 4 2 1 2 2 4 2 5 6 7 7 7 6 7 7 8 8 8 8 8 9 10 10 11 11 11 10 10 9 9 9 9 9 9 9 8 8 8 9 9 9 9 8 8 8 7 7 7 7 6 7 8 7 6 6 5 5 6 7 4 5
1 2 3 3 5 4 8 6 5 5 1 4 1 2 1 3 6 7 7 7 6 5 6 9 8 7 6 6 7 9 11 12 9 5 6 6 6 6 7 8 8 8 9 9 10 9 9 10 10 11 11 10 9 10 10 9 9 9 9 8 8 9 9 9 8 9 9 8 8 8 8 8 8 7 6 6 8 8 8 8 7 8 11 11 10 9
Wind_Direction
180 213 211 214 225 222 216 230 239 240 256 261 253 246 210 216 203 204 179 174 154 154 173 181 159 142 143 149 180 173 159 164 162 161 186 232 243 237 287 212 171 174 177 168 181 163 172 161 163 157 166 158 157 152 143 151 154 152 163 141 152 154 141 153 159 165 159 163 171 153 159 159 157 137 146 150 127 129 140 141 142 143 140 140 142 135
214 221 221 222 222 233 227 225 236 250 255 262 274 263 281 236 189 124 165 153 192 137 178 160 172 158 146 152 173 171 168 174 176 170 195 199 227 248 222 239 174 173 174 169 182 166 173 167 161 158 171 167 159 154 152 156 160 162 159 153 157 154 150 160 165 167 164 156 174 162 163 162 151 141 171 136 115 134 135 131 142 157 137 143 142 129
211 222 224 224 223 232 246 229 230 242 248 253 257 276 273 279 179 161 143 181 181 153 163 168 177 159 153 153 158 175 179 179 179 177 189 186 188 277 277 267 204 181 175 174 179 169 172 169 162 160 175 169 162 160 162 158 162 162 155 155 161 154 163 163 164 178 155 176 167 175 165 162 152 156 149 137 128 149 148 149 150 129 137 147 140 141
213 219 229 226 223 228 234 245 232 232 245 252 250 250 246 259 202 179 150 174 159 189 168 180 183 163 149 157 162 169 181 180 177 164 146 154 174 182 211 229 237 180 181 175 180 174 174 169 165 164 172 171 162 165 164 167 166 166 147 156 169 155 164 167 158 177 159 174 170 166 109 109 134 135 100 106 140 166 154 152 151 145 147 155 154 157
218 225 208 230 233 224 233 229 236 226 232 232 254 241 234 271 155 189 196 192 167 194 171 182 198 158 161 157 158 169 164 170 167 134 123 184 190 187 184 251 231 200 183 181 183 173 179 169 170 164 172 174 165 170 167 170 171 172 157 159 175 159 165 170 155 174 155 156 155 109 79 79 116 119 123 120 152 155 149 157 157 160 159 169 157 156
229 227 203 211 229 228 227 236 224 234 229 224 228 245 238 194 192 206 172 197 195 196 198 157 153 180 162 167 151 157 154 169 180 166 192 185 205 187 193 209 220 220 188 189 182 177 180 170 170 163 174 175 169 175 169 175 173 168 159 160 173 164 165 170 160 170 154 153 158 121 151 144 157 148 162 159 158 159 175 168 159 158 168 160 161 156
242 211 234 209 215 225 225 233 226 214 231 226 210 230 248 273 200 191 203 205 225 206 189 210 197 178 163 168 165 167 161 156 167 175 185 187 187 196 200 196 204 192 193 201 192 180 183 171 172 167 176 178 173 178 169 177 174 165 160 160 173 164 173 169 161 172 154 157 164 168 159 162 174 154 168 173 164 166 169 116 155 152 163 150 176 160
225 240 228 225 205 222 216 215 232 221 229 228 228 197 237 248 248 290 250 202 261 265 192 192 216 139 163 180 167 176 143 149 167 173 173 185 195 199 200 201 194 196 189 187 223 189 182 174 178 174 178 183 175 176 171 178 174 161 158 162 172 162 178 171 161 178 164 159 167 181 163 176 165 170 161 175 167 165 134 153 157 163 161 165 177 133
209 232 233 207 234 217 217 213 225 212 223 234 237 249 220 233 243 238 244 211 230 243 212 205 191 220 148 179 181 154 137 163 162 182 179 187 195 197 200 207 193 240 192 188 194 195 183 180 177 176 180 186 176 178 171 183 166 157 158 162 171 166 172 168 161 179 168 164 171 177 175 157 180 167 157 159 173 153 141 149 166 163 157 149 155 135
197 237 222 216 220 231 208 205 240 213 220 228 250 247 241 210 217 229 227 223 243 254 249 206 195 208 102 143 164 146 143 168 161 174 182 183 185 188 196 149 203 238 259 203 201 189 186 179 180 179 182 189 179 176 170 180 169 165 160 164 171 172 172 168 164 174 173 172 174 179 180 167 179 160 158 174 143 155 135 153 150 138 155 156 160 163
189 204 244 192 207 224 215 225 223 233 230 241 228 278 279 196 187 203 239 226 223 241 251 237 205 203 157 183 173 168 161 163 158 166 183 188 188 185 189 170 201 199 205 207 201 210 194 179 180 178 186 190 181 173 173 180 171 169 167 167 175 173 177 168 165 174 177 173 185 182 183 172 177 167 163 163 151 160 146 154 154 149 187 173 156 161
242 196 217 159 233 232 234 231 216 242 219 229 212 218 226 232 244 221 215 235 245 240 241 233 248 212 226 150 145 137 130 149 155 165 180 194 197 186 188 183 194 186 200 190 203 207 205 192 186 185 196 195 186 175 173 184 170 171 167 170 175 173 180 170 169 179 177 182 185 183 188 174 176 180 163 175 161 168 165 172 168 157 182 176 169 168
227 253 204 201 191 245 208 241 199 217 216 220 239 206 213 193 177 221 225 221 223 235 228 236 227 219 329 94 125 133 117 131 140 149 173 177 181 185 192 185 185 183 201 174 286 202 215 191 187 181 198 188 205 176 171 184 176 172 169 170 175 175 179 173 173 180 179 186 181 183 188 177 178 186 164 174 165 172 175 182 168 163 173 165 190 174
224 234 193 204 194 215 242 222 193 199 204 218 217 214 202 206 189 219 210 228 224 218 247 235 212 163 114 99 100 116 134 135 138 161 159 166 172 179 179 185 179 183 184 163 194 213 211 199 197 193 188 196 207 191 180 186 177 171 174 171 180 176 179 175 176 181 181 186 180 184 186 181 180 184 175 172 179 178 177 194 176 178 185 176 197 177
209 203 214 211 192 180 243 257 212 198 186 211 216 223 204 209 212 209 209 207 222 220 221 227 223 140 155 127 136 136 119 127 137 139 135 174 157 146 182 196 191 198 183 173 174 206 215 202 197 190 192 191 197 204 191 188 179 165 167 171 178 177 182 180 178 182 185 183 181 183 184 185 183 185 184 178 186 174 180 191 190 188 176 189 188 178
235 226 201 210 231 179 219 235 263 242 199 200 222 246 223 213 227 239 196 220 217 220 206 214 208 94 101 135 123 123 134 127 139 133 129 98 100 139 169 212 194 178 176 186 191 193 193 196 194 201 200 199 198 206 199 193 185 174 167 169 178 181 184 182 180 184 187 183 182 182 184 186 186 182 189 183 182 182 188 183 191 200 196 179 165 197
256 265 244 175 214 185 198 225 227 237 211 184 207 228 225 213 231 238 241 244 239 227 226 136 97 102 134 141 140 131 121 109 108 101 103 120 120 114 122 159 163 164 155 133 104 160 191 183 201 207 200 198 203 209 204 195 162 165 167 171 177 182 186 184 186 185 187 185 185 183 184 187 187 189 192 192 190 197 192 183 190 186 208 179 190 170
272 279 232 179 181 224 216 225 235 188 253 303 213 206 232 245 259 259 249 206 228 223 210 141 132 145 158 132 127 108 96 117 123 102 93 108 126 124 132 121 95 94 120 146 143 205 286 227 200 202 202 198 197 211 207 139 115 118 199 178 177 183 187 187 188 189 187 187 188 184 188 189 191 193 197 194 192 199 189 190 192 187 191 194 198 194
308 277 47 144 199 182 212 213 226 215 189 246 250 157 214 198 230 253 267 244 223 218 222 161 146 152 160 140 158 140 136 115 101 104 105 93 99 123 125 104 88 80 71 73 211 236 241 228 193 190 184 196 190 195 178 106 149 132 160 196 193 189 191 191 191 189 188 188 192 190 192 192 193 194 198 198 187 200 192 197 189 206 185 194 194 196
311 312 184 262 233 175 196 192 239 214 212 246 268 239 246 277 225 216 223 254 263 233 219 171 151 150 135 160 135 127 117 110 107 98 97 91 83 64 65 92 96 56 23 58 98 211 227 231 213 204 199 187 176 101 116 122 70 75 13 281 224 203 192 202 196 190 188 190 194 191 191 195 196 197 199 200 187 196 199 198 187 202 192 191 184 188
233 201 273 190 227 208 196 189 218 202 206 211 224 258 222 238 256 258 202 216 234 260 219 185 117 79 104 120 126 119 110 113 107 103 93 93 87 74 59 65 76 95 109 35 9 21 218 217 207 211 110 64 78 116 183 156 135 120 180 268 287 253 231 197 220 199 192 190 195 188 189 196 197 201 203 204 196 197 201 197 198 193 203 183 191 180
247 228 274 196 224 198 209 188 224 218 212 218 217 223 211 209 217 225 225 214 233 244 240 221 108 124 107 125 118 103 108 98 104 108 110 106 90 80 70 51 49 71 71 76 62 36 24 305 225 201 112 134 117 164 169 142 135 157 175 205 268 322 302 287 223 224 199 210 199 199 191 199 196 204 206 207 203 203 201 199 203 190 197 190 193 187
2 6 306 289 231 205 223 198 204 254 286 278 235 215 221 214 227 201 228 209 222 240 288 98 127 117 134 139 139 120 106 104 106 101 101 95 95 98 87 80 69 55 69 70 65 63 50 53 76 151 89 112 138 155 139 144 178 177 177 193 198 197 216 248 267 352 53 40 330 294 217 200 199 201 207 209 207 205 206 202 201 201 194 199 192 192
327 263 251 288 333 322 163 152 163 231 286 277 272 238 207 224 243 239 230 273 255 223 147 165 101 138 154 140 131 123 110 110 106 92 96 94 96 89 90 85 77 85 80 72 61 52 54 51 42 39 50 60 64 66 76 133 204 173 173 193 199 211 209 197 177 175 135 139 185 226 323 274 214 204 206 210 210 207 209 202 201 201 202 200 199 189
294 197 264 257 292 261 219 179 248 237 242 253 227 230 246 208 337 352 340 39 283 304 11 72 104 150 139 126 123 130 131 130 107 100 95 92 92 91 90 91 89 74 74 78 70 56 50 44 42 42 56 63 28 351 12 20 310 312 122 92 15 108 235 339 122 102 76 69 197 201 175 286 276 224 210 210 211 209 208 206 202 198 204 202 207 195
293 320 223 223 224 207 200 190 203 203 219 233 228 204 216 237 329 335 280 251 285 298 61 106 121 113 151 174 145 148 117 110 120 121 102 89 85 86 86 89 86 78 71 64 61 56 51 38 31 37 43 40 37 34 24 338 352 114 140 95 342 139 256 223 75 119 150 174 183 199 215 202 249 259 222 213 213 211 207 209 204 197 199 205 210 205
321 303 292 328 291 295 339 299 298 300 209 227 220 226 141 302 254 275 337 315 271 314 76 92 136 146 168 175 154 124 116 118 101 104 123 116 99 94 89 84 84 83 73 67 63 65 64 54 40 29 32 35 47 40 43 38 39 50 91 134 194 172 184 188 177 156 170 189 189 187 215 224 216 250 244 218 219 213 209 208 208 202 197 201 207 211
277 261 196 181 239 317 1 307 307 273 286 232 238 211 252 328 342 317 261 247 44 319 113 130 139 143 163 179 128 135 121 116 114 112 77 62 76 95 100 92 88 83 79 74 65 64 63 65 63 50 39 41 38 42 27 21 17 44 52 35 16 347 255 173 143 139 116 259 262 237 220 232 266 287 289 257 221 226 212 211 210 205 194 193 205 210
324 268 231 192 213 237 258 301 319 312 309 297 233 220 197 239 258 258 263 277 22 302 124 153 160 142 144 142 136 128 127 118 100 79 108 145 129 99 79 82 79 75 76 77 78 68 63 62 60 60 61 56 50 47 25 11 9 28 39 33 21 14 29 254 199 173 198 200 208 198 295 357 359 331 318 295 267 230 228 216 209 203 196 186 200 211
312 238 345 331 288 206 225 238 239 287 327 330 144 161 57 325 271 247 251 252 351 98 133 134 125 132 92 138 130 127 114 101 100 112 101 81 71 82 85 75 78 76 69 69 68 72 69 64 63 62 61 65 68 67 58 357 359 24 27 16 18 29 17 343 121 210 243 149 107 257 266 174 179 32 324 323 317 303 272 237 219 210 200 191 192 200
292 44 1 300 313 284 221 246 284 257 312 283 131 100 297 272 315 322 323 282 144 134 158 143 122 108 161 214 109 108 105 109 114 81 56 58 80 83 76 72 68 75 73 64 63 66 68 63 61 60 59 60 66 71 69 38 5 21 35 27 9 15 23 11 44 58 23 57 91 59 36 28 43 106 171 300 324 347 333 311 284 245 221 209 192 197
264 301 146 271 277 264 214 227 245 281 289 284 267 192 212 253 244 231 249 75 255 173 157 138 137 141 230 165 133 128 126 117 106 98 80 81 84 75 80 78 73 64 66 68 59 54 57 59 53 55 56 54 55 58 62 52 15 19 44 39 25 12 25 29 28 32 28 40 50 54 65 114 162 150 92 52 23 348 24 23 358 333 315 267 224 208
276 295 276 228 245 260 231 189 253 245 254 257 259 258 213 240 264 243 215 207 360 301 168 171 150 151 188 163 137 126 124 117 113 96 103 78 72 89 68 74 78 74 65 61 60 57 51 53 55 51 57 54 49 55 53 38 32 19 20 40 29 20 29 34 34 29 23 25 35 45 42 15 17 28 25 132 252 175 126 97 102 18 337 324 309 276
276 291 290 279 262 262 197 140 88 260 236 245 355 245 206 217 205 260 166 124 61 14 74 144 142 162 166 159 154 148 131 105 107 115 113 102 98 74 78 68 68 74 76 66 60 55 50 48 50 49 57 56 47 57 63 41 30 25 24 27 35 35 38 33 34 30 24 21 26 30 24 21 25 34 229 208 215 215 159 177 171 164 191 213 297 331
222 235 261 266 260 265 226 103 232 241 234 57 58 43 45 43 9 305 8 169 113 110 77 130 150 153 168 107 86 95 103 110 114 105 96 90 64 88 85 77 70 67 68 74 66 57 52 45 46 42 49 54 46 38 51 46 30 23 29 16 31 51 41 36 37 35 24 26 22 18 9 6 11 8 356 246 246 245 231 232 145 263 282 242 186 197
312 234 240 239 262 282 270 201 231 223 84 119 71 48 36 41 50 70 131 29 36 118 128 132 142 139 131 128 125 131 132 117 111 104 109 97 75 37 51 68 66 62 61 61 70 58 46 41 39 38 43 51 47 39 48 41 30 26 29 20 25 38 36 36 41 37 30 29 19 8 4 353 356 2 347 338 268 281 298 275 259 207 162 195 283 299
304 315 291 266 188 252 236 228 225 105 201 115 164 110 234 133 183 230 238 187 190 132 142 120 118 139 149 150 135 135 140 127 112 114 107 117 117 100 57 52 57 60 59 63 60 57 47 34 28 29 31 68 44 38 53 48 39 22 23 26 24 41 40 30 28 26 35 35 19 7 0 349 345 345 344 326 308 280 273 255 208 124 109 278 228 222
303 272 8 328 234 240 237 213 211 212 233 177 93 108 88 73 39 39 340 122 162 167 147 147 163 165 186 152 170 140 178 258 143 97 105 94 101 110 98 52 50 59 51 53 64 48 40 34 12 25 21 45 41 26 51 61 49 23 17 19 21 33 40 32 28 16 13 20 21 9 357 352 349 348 350 346 340 329 314 290 250 216 170 207 237 246
258 260 260 263 278 247 245 267 224 197 33 62 117 98 73 73 40 70 254 213 137 198 131 181 164 164 202 183 170 141 167 256 147 117 91 74 57 51 50 58 41 28 35 47 44 27 27 22 11 5 15 38 28 7 36 48 58 34 18 14 16 20 34 29 23 17 13 3 359 6 359 350 358 359 358 352 339 323 311 312 310 297 258 216 213 239
241 230 232 233 247 236 249 234 246 29 153 165 109 113 106 89 136 230 215 194 136 168 116 163 190 176 146 46 97 214 266 248 162 107 97 88 63 58 40 34 44 28 24 31 38 11 19 12 17 12 0 27 13 350 34 23 31 32 18 5 13 11 19 23 13 3 6 1 353 358 3 2 360 353 345 356 356 358 338 307 292 280 285 294 263 242
200 229 220 240 226 227 228 244 212 100 87 132 118 102 82 37 333 216 215 96 64 74 76 27 355 131 99 97 28 268 120 43 90 97 248 84 32 40 359 29 27 20 23 18 24 0 18 16 19 357 355 22 352 8 16 12 25 18 11 356 6 4 6 11 359 353 357 351 352 1 7 5 345 338 340 345 3 352 334 317 302 294 284 284 274 264
247 254 225 234 241 244 239 244 248 69 119 120 105 92 54 234 199 178 97 351 13 120 91 11 356 254 167 151 104 304 95 116 77 86 42 29 16 9 7 10 16 8 8 8 8 23 19 9 7 351 2 0 356 8 3 5 23 8 358 351 356 354 353 355 344 349 340 343 338 350 0 356 336 333 339 342 12 7 339 329 305 292 289 286 299 295
251 228 232 228 245 257 240 260 224 192 139 161 107 116 25 283 83 112 131 101 74 70 79 83 39 35 40 142 190 121 26 350 34 23 12 1 339 350 11 13 10 3 355 355 5 15 10 3 358 359 349 347 355 360 357 358 2 352 348 340 347 342 344 336 334 329 332 327 336 342 335 309 313 336 322 341 338 336 314 325 322 308 294 292 298 316
193 249 237 247 247 260 232 237 288 43 131 134 237 306 85 72 113 148 126 77 30 36 128 57 31 23 48 201 239 223 224 134 34 322 294 334 335 332 3 15 360 357 352 356 357 5 2 353 349 342 340 345 353 352 352 347 338 334 337 335 347 333 333 324 312 308 316 326 332 332 310 315 296 248 272 274 259 273 269 259 293 313 299 280 278 262
175 242 0 304 28 304 339 53 192 191 148 129 93 110 95 102 99 78 23 88 141 190 145 193 200 155 167 314 284 289 293 263 320 315 303 308 321 338 357 357 356 354 347 354 354 4 354 344 337 338 340 347 347 345 339 335 333 332 331 344 333 332 313 302 305 315 325 326 324 309 314 316 314 281 225 228 244 259 255 253 219 228 309 324 299 252
92 265 66 267 255 267 227 248 107 168 162 147 145 75 111 131 145 118 158 211 181 299 343 11 35 10 356 189 198 240 237 268 320 298 288 303 315 327 328 336 349 348 349 349 351 355 342 336 337 337 338 341 339 336 339 334 331 328 333 327 320 315 322 334 341 336 327 317 306 309 314 318 315 313 320 296 238 254 260 272 242 187 187 239 256 251
229 214 224 226 265 239 236 182 187 194 175 188 159 137 124 126 90 109 132 205 28 38 164 355 360 42 47 26 8 297 8 18 285 303 307 289 276 294 323 342 347 351 349 344 346 341 340 338 332 334 333 332 337 333 329 329 328 324 325 322 330 328 337 333 321 313 306 303 307 311 312 304 307 313 309 294 278 231 231 247 267 245 207 220 243 253
225 185 221 218 232 228 241 149 176 193 181 181 214 167 165 161 164 166 177 77 80 75 55 50 75 277 18 208 144 168 303 261 246 244 246 269 312 329 328 331 339 337 336 338 333 345 335 332 329 326 327 325 326 327 326 326 324 323 328 329 323 326 323 315 316 313 311 308 306 302 301 300 297 295 289 286 279 302 304 252 240 252 264 269 303 355
58 35 256 252 239 234 256 264 221 202 207 216 224 259 240 197 172 190 182 175 171 150 168 181 147 21 144 190 168 182 236 305 319 319 293 287 276 281 302 320 318 328 335 330 338 336 332 326 322 322 319 321 324 324 323 318 317 319 318 321 323 322 321 315 313 310 305 303 295 290 283 282 279 274 283 296 315 292 270 273 288 313 331 321 1 43
234 254 286 254 243 238 311 11 2 257 239 249 246 218 257 302 298 223 178 182 169 185 162 176 162 178 240 15 4 253 237 236 284 302 304 299 304 315 313 317 329 327 328 328 328 331 328 325 323 319 317 314 314 314 315 316 316 318 320 320 320 320 312 316 313 308 303 302 300 297 298 300 304 319 326 314 305 303 301 322 324 288 282 285 293 298
20 79 31 326 307 334 357 324 25 19 331 150 247 18 251 223 216 213 209 203 188 200 166 191 215 193 187 182 184 205 200 206 221 232 243 262 290 321 327 315 316 327 326 333 331 327 325 318 312 308 309 315 318 317 316 316 316 312 312 313 314 317 318 320 317 313 311 305 298 303 308 307 303 304 303 301 300 303 300 289 280 248 234 234 238 229